Other Public Products
Issued by NWS Grand Forks, ND

Home | Current Version | Previous Version | Text Only | Print | Product List | Glossary On
Versions: 1 2 3 4 5 6 7 8 9 10 11 12 13 14 15 16 17 18 19 20 21 22 23 24 25 26 27 28 29 30 31 32 33 34 35 36 37 38 39 40 41 42 43 44 45 46 47 48 49 50
000
FPUS83 KFGF 280931
OPUFGF
PRAIRIE TO PINES WEATHER ROUNDUP
NATIONAL WEATHER SERVICE EASTERN NORTH DAKOTA/GRAND FORKS ND
400 AM CDT FRI JUL 28 2017

 **SATELLITE DATA USED TO AUGMENT SKY COVER AT AUTOMATED STATIONS**
 *****  WEATHER ACROSS EASTERN NORTH DAKOTA  *****

CITY           SKY/WX    TMP DP  RH WIND       PRES   REMARKS
GRAND FORKS    FAIR      60  59  96 S3        30.06S
GRAND FORKS AF FAIR      57  56  99 CALM      30.07R
GRAND CITY NWS NOT AVBL
BUXTON           N/A     64  63  96 CALM        N/A
DEVILS LAKE    FAIR      67  60  78 S9        30.08S
FARGO          FAIR      62  58  86 SE6       30.07S
WAHPETON ARPT  FAIR      59  55  88 CALM      30.08S
$$

 *****  WEATHER ACROSS CENTRAL AND WESTERN NORTH DAKOTA  *****

CITY           SKY/WX    TMP DP  RH WIND       PRES   REMARKS
JAMESTOWN      FAIR      59  57  93 CALM      30.08R
BISMARCK       FAIR      68  60  75 E6        30.05F
MINOT          FAIR      69  58  67 SE6       30.03S
MINOT AFB      FAIR      62  58  88 SE6       30.01F
GARRISON         N/A     64  61  90 E5        30.03F
WILLISTON      FAIR      61  59  93 CALM      30.00S
DICKINSON      CLOUDY    63  61  93 E7        30.02S
HETTINGER      FAIR      63  55  75 SE7       30.05S
$$

 *****  OTHER OBSERVATIONS NORTHEAST NORTH DAKOTA  *****

CITY           SKY/WX    TMP DP  RH WIND       PRES   REMARKS
WALHALLA       NOT AVBL
LANGDON        FAIR      55  55 100 SE7       30.09S
CAVALIER       FAIR      61  59  94 CALM      30.06S
GRAFTON        FAIR      57  57 100 CALM      30.08S
CANDO          NOT AVBL
FORT TOTTEN      N/A     66  58  75 SE7       29.95S
ROLLA            N/A     57  57 100 S5        30.09R
RUGBY          NOT AVBL
 ***** THE ABOVE OBSERVATIONS ARE NON NWS ARE NOT QUALITY
        CONTROLLED AND MAY MIS-REPORT RAIN FOR SNOW...
$$

 *****  OTHER OBSERVATIONS SOUTHEAST NORTH DAKOTA *****

CITY           SKY/WX    TMP DP  RH WIND       PRES   REMARKS
COOPERSTOWN    FAIR      59  57  94 CALM      30.10R
VALLEY CITY    FAIR      59  59 100 S5        30.11R
OAKES          NOT AVBL
GWINNER        SUNNY     57  55  94 CALM      30.09R
SHEYENNE NWR     N/A     58  58 100 E2        29.95S
BUFFALO          N/A     61  55  81 W9          N/A
WYNDMERE       NOT AVBL
 ***** THE ABOVE OBSERVATIONS ARE NON NWS ARE NOT QUALITY
       CONTROLLED AND MAY MIS-REPORT RAIN FOR SNOW...
$$

  *****  WEATHER ACROSS NORTHERN MINNESOTA  *****

CITY           SKY/WX    TMP DP  RH WIND       PRES   REMARKS
FLAG ISLAND    FAIR      68  64  88 CALM      30.07S
WARROAD        FAIR      57  54  88 CALM      30.09S
ROSEAU         FAIR      57  52  82 CALM      30.08S
HALLOCK        FAIR      55  54  94 S3        30.06S
THF RVR FALLS  FAIR      60  58  92 CALM      30.09S
HALSTAD          N/A     58  55  91 SE5         N/A
FOSSTON        FAIR      55  52  88 CALM      30.10S
BAUDETTE       FAIR      57  57 100 E3        30.08S FOG
WASKISH        FAIR      55  54  94 CALM      30.10S
CROOKSTON      FAIR      61  57  88 S3        30.09R
$$
  *****  WEATHER ACROSS CENTRAL AND WEST MINNESOTA  *****

CITY           SKY/WX    TMP DP  RH WIND       PRES   REMARKS
BEMIDJI        FAIR      54  53  96 W5        30.11S
PARK RAPIDS    FAIR      57  53  86 W3        30.10S
WADENA         FAIR      55  55 100 CALM      30.10S FOG
DETROIT LAKES  FAIR      61  59  94 CALM      30.12R
MOORHEAD       FAIR      61  57  88 CALM      30.08S
FERGUS FALLS   FAIR      64  61  88 E3        30.08S
ELBOW LAKE     FAIR      66  62  85 SE6       30.09S
MORRIS MN      FAIR      63  59  88 CALM      30.07S
STAPLES        FAIR      55  55 100 CALM      30.10R FOG
WHEATON        FAIR      59  57  94 CALM      30.09S
$$
  *****  WEATHER ELSEWHERE ACROSS MINNESOTA  *****

CITY           SKY/WX    TMP DP  RH WIND       PRES   REMARKS
DULUTH         FAIR      54  52  93 CALM      30.11S
INTRNTL FALLS  FAIR      51  48  89 CALM      30.10R FOG
ELY            FAIR      50  48  93 CALM      30.12R FOG
CLOQUET        FAIR      54  52  94 CALM      30.11S
BRAINERD       FAIR      60  60 100 CALM      30.10R
HIBBING        FAIR      49  49 100 CALM      30.12S FOG
ALEXANDRIA     FAIR      65  60  84 CALM      30.11R
SAINT CLOUD    FAIR      60  60 100 CALM      30.08R
MINNEAPOLIS    FAIR      68  60  75 CALM      30.07R
$$

  *****  WEATHER ACROSS SOUTH DAKOTA  *****

CITY           SKY/WX    TMP DP  RH WIND       PRES   REMARKS
SIOUX FALLS    FAIR      62  60  93 NE3       30.08R
BROOKINGS      FAIR      64  63  96 CALM      30.10R
WATERTOWN      FAIR      67  59  75 CALM      30.09S
HURON          FAIR      67  63  87 SE6       30.07R
SISSETON         N/A     59  58  96 CALM      30.08R
ABERDEEN       FAIR      66  63  90 SE3       30.08R
MITCHELL       FAIR      66  64  93 CALM      30.07R
PIERRE         CLOUDY    71  60  68 E5        30.04R
MOBRIDGE       FAIR      72  63  73 SE8       30.03S
RAPID CITY     FAIR      60  55  83 SE7       30.04F
$$

  *****  SOME WEATHER IN NEARBY STATES *****

CITY           SKY/WX    TMP DP  RH WIND       PRES   REMARKS
GLASGOW MT     FAIR      63  53  70 E10       29.95S
GREAT FALLS MT FAIR      64  41  42 SW9       30.01R
CHEYENNE WY    CLOUDY    59  58  96 NW6       30.20R FOG
SCOTTSBLUFF NE MOCLDY    65  62  90 SE13      30.09S
OMAHA NE       FAIR      66  62  87 N7        30.02R
DES MOINES IA  FAIR      69  64  84 CALM      30.00S
DAVENPORT IA   FAIR      61  57  87 NE7       30.00S
CHICAGO IL     FAIR      69  63  81 N13       29.94S
EAU CLAIRE WI  FAIR      62  59  90 NE6       30.06R
LA CROSSE WI   FAIR      68  64  87 SE3       30.03S
$$

  *****  SOME NATIONAL WEATHER *****

CITY           SKY/WX    TMP DP  RH WIND       PRES   REMARKS
LA GUARDIA NY  FAIR      74  71  91 CALM      29.84R
RALEIGH NC     MOCLDY    76  74  93 SW8       29.89S
ATLANTA GA     MOCLDY    73  72  96 SW5       29.93F
NEW ORLEANS LA FAIR      79  75  87 W7        29.95R
OKLAHOMA CITY  MOCLDY    79  75  87 N7        29.92S
ALBUQUERQUE NM LGT RAIN  63  62  97 SE10      30.24S
SALT LAKE CITY FAIR      69  61  75 SW7       30.08S
LOS ANGELES CA MOCLDY    66  63  90 CALM      29.91S
BOISE ID       FAIR      73  43  33 E10       29.99S
SEATTLE WA     FAIR      56  53  90 NW3       30.10S
$$

*** WEATHER ACROSS MANITOBA...SASKATCHEWAN AND ONTARIO ***
                ***ONTARIO***

CITY           SKY/WX    TMP DP  RH WIND       PRES   REMARKS
GERALDTON      PTCLDY    48  45  87 SW2       30.13R
THUNDER BAY    MOCLDY    54  54 100 SW5       30.10R
SIOUX LOOKOUT  CLEAR     52  52 100 SE2       30.09S
TORONTO        MOCLDY    64  57  77 N6        29.95R
BIG TROUT LK   CLOUDY    64  55  72 W8        29.98R
PICKLE LAKE    NOT AVBL
DRYDEN         CLEAR     63  59  88 S3        30.09S
KENORA         CLEAR     70  55  60 W3        30.09S
$$
                *** MANITOBA***

CITY           SKY/WX    TMP DP  RH WIND       PRES   REMARKS
BRANDON        CLEAR     55  55 100 E6        30.04S
DAUPHIN        CLEAR     59  55  88 VRB2      29.99F
ISLAND LAKE    NOT AVBL
PILOT MOUND      N/A     55  54  94 SE6         N/A
THE PAS        PTCLDY    64  57  77 S8        29.90S
THOMPSON       PTCLDY    64  57  77 S3        29.86F
WINNIPEG       CLEAR     66  61  82 S3        30.05S
LYNN LAKE      CLEAR     63  57  82 S3        29.79F
CHURCHILL      MOCLDY    54  52  94 E14       29.79S
GILLAM         PTCLDY    66  59  77 SW9       29.84F
$$
                ***SASKATCHEWAN***

CITY           SKY/WX    TMP DP  RH WIND       PRES   REMARKS
ESTEVAN        PTCLDY    59  55  88 SE2       30.00S
KINDERSLEY     MOCLDY    66  57  72 S3        29.84R
LLOYDMINSTER   MOCLDY    59  57  94 NE8       29.86F
PRINCE ALBERT  PTCLDY    68  59  73 S8        29.85S
REGINA         CLEAR     61  57  88 SE10      29.97F
YORKTON        CLEAR     61  59  94 S8        29.98F



USA.gov is the U.S. government's official web portal to all federal, state and local government web resources and services.